Simultaneous Nadir Overpasses (SNOs) Predictions

Prediction of SNOs between METOP-B and TERRA Satellite Orbit:

Table of predicted SNOs for the next 14.0 days since TLE Epoch: 12/26/2020
Index Date (METOP-B) Time (METOP-B) Lat,Lon (METOP-B) SZA (METOP-B ) Date (TERRA) Time (TERRA) Lat,Lon (TERRA) SZA (TERRA ) Distance(km) Time Diff (sec)
1 12/27/2020 05:13:09 81.29, 148.34 107.13 12/27/2020 05:13:48 81.30, 148.47 107.16 2.29 39
2 12/27/2020 06:03:48 -81.30, -43.80 72.82 12/27/2020 06:03:15 -81.29, -43.99 72.86 3.30 33
3 12/30/2020 00:47:33 81.29,-145.17 106.95 12/30/2020 00:48:03 81.29,-145.26 106.95 1.60 30
4 12/30/2020 01:38:12 -81.30, 22.72 73.00 12/30/2020 01:37:29 -81.31, 22.68 73.02 0.90 43
5 01/01/2021 20:21:56 81.30, -78.70 106.70 01/01/2021 20:22:16 81.30, -78.66 106.72 0.93 20
6 01/01/2021 21:12:36 -81.30, 88.83 73.29 01/01/2021 21:11:43 -81.30, 88.93 73.30 1.61 53
7 01/04/2021 15:56:21 81.29, -12.65 106.35 01/04/2021 15:56:31 81.29, -12.47 106.37 2.96 10
8 01/04/2021 16:46:59 -81.31, 155.71 73.55 01/04/2021 16:45:57 -81.31, 155.51 73.59 3.30 62
9 01/07/2021 10:40:21 -81.13,-120.03 74.77 01/07/2021 10:41:35 -80.91,-119.41 74.86 27.25 74
10 01/07/2021 11:30:44 81.30, 54.17 106.02 01/07/2021 11:30:45 81.29, 54.04 106.01 2.20 1



Historial Predications of SNOs between METOP-B and TERRA
